STARLINK-1868 (47154 NORAD) Tracking and Keplerian Element Data

This shows tracking and keplerian element data for the satellite.

Feedback or suggestion? Click here.




ElementValue
Catalog47154
NameSTARLINK-1868
Epoch Orbit969
Epoch Day21.16668981
Epoch Year2021
RAAN72.8967
Inclination53.0553
Eccentricity0.000167
Argument of Perigee51.9278
Mean Anonmoly16.344
Mean Motion15.6273734
Decay Rate0.00030553
L11 47154U 20088AJ 21021.16668981 .00030553 00000-0 33846-3 0 9993
L22 47154 53.0553 72.8967 0001670 51.9278 16.3440 15.62737340 9699

Live tracking and technical data element details for STARLINK-1868 (NORAD 47154). STARLINK-1868 can be tracked NOW for your location showing map with azimuth and elevation plus other details from your city location.

Track the satellite on the map from your city or location and see movement details for azimuth, elevation, latitude, longitude, range, height, and movement on the map or in text.







IsCatalogInMostPopularTable: catalog: 47154, numindb: 23
Update: records affected: 1



GetName: 47154 STARLINK-1868

Hit Count: updated at: Sat, 23 Jan 2021 17:58:12 GMT